Regional Weather Roundup
Issued by NWS

Home | Current Version | Previous Version | Graphics & Text | Print | Product List | Glossary On
Versions: 1 2 3 4 5 6 7 8 9 10 11 12 13 14 15 16 17 18 19 20 21 22 23 24 25 26 27 28 29 30 31 32 33 34 35 36 37 38 39 40 41 42 43 44 45 46 47 48 49 50
120
ASUS45 KCYS 051210
RWRWY

WYOMING REGIONAL WEATHER ROUNDUP
NATIONAL WEATHER SERVICE CHEYENNE WY
500 AM MST MON DEC 05 2016

NOTE:  "FAIR" INDICATES FEW OR NO CLOUDS BELOW 12,000 FEET
WITH NO SIGNIFICANT WEATHER AND/OR OBSTRUCTIONS TO VISIBILITY.

WYZ001-051300-
YELLOWSTONE NATIONAL PARK

CITY           SKY/WX    TMP DP  RH WIND       PRES   REMARKS
LK YELLOWSTONE   N/A      9   0  67 W8        29.62R WCI  -3
6HR MIN TEMP:   9; 6HR MAX TEMP:  24; 6HR PCP:  0.02;

W YELLOWSTONE  NOT AVBL

$$
WYZ002>013-054>058-071-098>099-051300-
NORTHERN WYOMING

CITY           SKY/WX    TMP DP  RH WIND       PRES   REMARKS
JACKSON        CLOUDY    16  16 100 W6        29.72R WCI   7
CODY           LGT SNOW  22  19  89 N18G25    29.62R VSB 1   WCI   7
GREYBULL       CLOUDY    32  15  49 NW28G39   29.61R WCI  18
6HR MIN TEMP:  31; 6HR MAX TEMP:  34; 6HR PCP:  0.01;

WORLAND        LGT SNOW  26  23  88 NW15      29.61R FOG     WCI  14
6HR MIN TEMP:  23; 6HR MAX TEMP:  30; 6HR PCP:  0.02;

SHERIDAN       LGT SNOW  28  24  85 NW16      29.62R FOG     WCI  16
6HR MIN TEMP:  28; 6HR MAX TEMP:  33; 6HR PCP:  0.01;

BUFFALO        SNOW      26  22  84 NW14      29.57R VSB 1/2 WCI  14
6HR MIN TEMP:  26; 6HR MAX TEMP:  36; 6HR PCP:  0.03;

GILLETTE       LGT SNOW  27  26  96 N16       29.56R FOG     WCI  15
6HR MIN TEMP:  27; 6HR MAX TEMP:  37; 6HR PCP:  0.08;

HULETT         LGT SNOW  32  30  93 N6        29.54F VSB 3/4 WCI  26
NEWCASTLE      FLURRIES  32  30  93 NW14      29.53R WCI  22

$$
WYZ014>020-022>026-101>103-051300-
CENTRAL WYOMING

CITY           SKY/WX    TMP DP  RH WIND       PRES   REMARKS
BIG PINEY      CLOUDY    20  14  77 NW15      29.65F WCI   6
6HR MIN TEMP:  20; 6HR MAX TEMP:  29; 6HR PCP:  0.01;

PINEDALE       PTSUNNY   19  12  73 NW18G25   29.66R WCI   4
DUBOIS         LGT SNOW  19  14  79 MISG      29.54R VSB 3/4
LANDER         CLOUDY    32  25  75 NW13G18   29.53R WCI  22
6HR MIN TEMP:  32; 6HR MAX TEMP:  36;

RIVERTON       LGT SNOW  31  25  78 NW13      29.54R WCI  21
6HR MIN TEMP:  28; 6HR MAX TEMP:  34; 6HR PCP: TRACE;

CASPER         CLOUDY    31  24  75 NE8       29.52R WCI  23
6HR MIN TEMP:  31; 6HR MAX TEMP:  40; 6HR PCP: TRACE;

DOUGLAS        CLOUDY    31  25  78 N13G26    29.53R WCI  21
6HR MIN TEMP:  31; 6HR MAX TEMP:  43;


$$
WYZ021-027>030-104>119-051300-
SOUTHERN WYOMING

CITY           SKY/WX    TMP DP  RH WIND       PRES   REMARKS
EVANSTON       LGT SNOW  19  13  77 NW28G36   29.79R WCI   1
6HR MIN TEMP:  20; 6HR MAX TEMP:  32; 6HR PCP:  0.01;

FORT BRIDGER   SNOW      24  24 100 W26G33    29.77R VSB 1/2 WCI   8
ROCK SPRINGS   LGT SNOW  30  26  85 W36G43    29.64R FOG     WCI  14
6HR MIN TEMP:  30; 6HR MAX TEMP:  32; 6HR PCP: TRACE;

DIXON          CLOUDY    32  15  50 SW15G21   29.69F WCI  21
RAWLINS        CLOUDY    30  18  60 SW20G26   29.60F WCI  17
6HR MIN TEMP:  29; 6HR MAX TEMP:  34; 6HR PCP: TRACE;

SARATOGA       LGT SNOW  30  21  69 SW15G25   29.64F WCI  19
LARAMIE        MOCLDY    31  18  58 W20G30    29.60R WCI  19
6HR MIN TEMP:  29; 6HR MAX TEMP:  36;

CHEYENNE       MOCLDY    42  19  39 W29G37    29.58S
6HR MIN TEMP:  34; 6HR MAX TEMP:  43;

TORRINGTON     FAIR      44  21  40 W20G29    29.54S
6HR MIN TEMP:  43; 6HR MAX TEMP:  49;

PINE BLUFFS    FAIR      27  19  74 CALM      29.59F

$$




USA.gov is the U.S. government's official web portal to all federal, state and local government web resources and services.